Starlink 11088

operational
NORAD ID: 59709 Int'l Des: 2024-088 Owner: SPXS Country: US Constellation: starlink
LEOCIRCULAR

Über Starlink 11088

Beschreibung wird geladen...

Live-Position

3D-Globus wird geladen...

Nächste Überflüge

Höhenverlauf

Altitude vs Time

uPlot chart will show altitude changes over time

Zweizeiliger Elementsatz

1 59709U 24088B 25354.26585480 .00004842 00000-0 44791-4 0 9996
2 59709 53.1584 358.1128 0001492 78.4938 281.6248 15.69718162 93796
Epoch: 20. Dez. 2025 • Age: 20 hours

Aktueller Status

Höhe 362.4 km
Geschwindigkeit 7.69 km/s
Subsatellitenpunkt -9.78°S, 136.15°W
Startdatum 10. Mai 2024
Alter 1.6 years
Typ internet

Technische Details

Klassifizierung Payload
Masse 960.00 kg
Trockenmasse 910.00 kg
Gesamtmasse 960.00 kg
Länge 0.30 m
Durchmesser 4.10 m
Spannweite 29.00 m
Form Box + pan
Hersteller SPXS
Bus-Typ Starlink V2MD
Phasenstatus In Orbit
Besitzer/Staat SPXS/US

Große Konstellationen

Loading constellations...